Regional Weather Roundup
Issued by NWS Jackson, KY

Home | Current Version | Previous Version | Graphics & Text | Print | Product List | Glossary On
Versions: 1 2 3 4 5 6 7 8 9 10 11 12 13 14 15 16 17 18 19 20 21 22 23 24 25 26 27 28 29 30 31 32 33 34 35 36 37 38 39 40 41 42 43 44 45 46 47 48 49 50
000
ASUS43 KJKL 310411
RWRJKL

EAST KENTUCKY HOURLY WEATHER ROUNDUP
NATIONAL WEATHER SERVICE JACKSON KY
1200 AM EDT SUN AUG 31 2014

NOTE: "FAIR" INDICATES FEW OR NO CLOUDS BELOW 12,000 FEET WITH
NO SIGNIFICANT WEATHER AND/OR OBSTRUCTIONS TO VISIBILITY.

* THESE REPORTS ARE NOT UNDER NWS QUALITY CONTROL AND MAY NOT
  REPORT WEATHER SUCH AS PRECIPITATION AND FOG.

KYZ079-080-083-085-087-088-110-112-115-119-120-310500
...EASTERN KENTUCKY...

CITY           SKY/WX    TMP DP  RH WIND       PRES   REMARKS
JACKSON        RAIN      71  68  90 VRB6      30.15F FOG
LONDON         LGT RAIN  72  69  90 CALM      30.14F
SOMERSET*      RAIN      70  70 100 SW6       30.15S
MONTICELLO*    CLOUDY    72  70  94 SW8       30.14R FOG
WILLIAMSBURG*  CLOUDY    68  68 100 W8        30.17R VSB 1
MIDDLESBORO*   LGT RAIN  70  70  99 CALM      30.15F
HARLAN APT*    CLOUDY    70  70 100 MISG      30.16F
BLACK MTN*       N/A     66  64  94 SW5         N/A
PIKEVILLE APT* CLOUDY    75  70  83 S5        30.13R
BIG SANDY*     DRIZZLE   77  72  84 SW3       30.11S
MOREHEAD APT*  LGT RAIN  72  70  94 S8        30.12R
$$

KYZ035-036-041-042-044-050-067-078-099-310500
...CENTRAL KENTUCKY...

CITY           SKY/WX    TMP DP  RH WIND       PRES   REMARKS
MT STERLING*   LGT RAIN  72  72 100 SW5       30.12S
FLEMING/MASON* LGT RAIN  70  70 100 SW6       30.11R
DANVILLE*      DRIZZLE   72  72 100 S6        30.11S
RICHMOND*      CLOUDY    72  68  88 S7        30.11F
LEXINGTON      LGT RAIN  74  71  91 S8        30.09S
FRANKFORT      CLOUDY    73  71  93 S5        30.08R FOG
$$

KYZ091>093-OHZ055-061-077-WVZ005-015-034-035-042-310500
...SOUTHERN OHIO/WEST VIRGINIA...

CITY           SKY/WX    TMP DP  RH WIND       PRES   REMARKS
COVINGTON      CLOUDY    71  68  90 S9        30.05S FOG
COLUMBUS       CLOUDY    77  67  71 SW7       30.04S
DAYTON         CLOUDY    74  68  81 SW9       30.05S
WILMINGTON     LGT RAIN  70  67  90 W8        30.06S FOG
HUNTINGTON     CLOUDY    76  71  85 SW3       30.05F
CHARLESTON     CLOUDY    77  69  76 S6        30.07S
PINEVILLE*     MOCLDY    70  70  99 MISG      30.21F
BECKLEY        MOCLDY    72  63  73 S9        30.21S
BLUEFIELD      PTCLDY    74  64  71 S7        30.24F
$$

VAZ002-007-008-TNZ017-027-036-066-071-310500
...SOUTHWEST VIRGINIA/EAST TENNESSEE...

CITY           SKY/WX    TMP DP  RH WIND       PRES   REMARKS
WISE*          CLOUDY    73  61  64 S8        30.22F
JONESVILLE*      N/A     73  72  94 CALM      30.17F
ABINGDON*      MOCLDY    73  67  81 CALM      30.19F
BRISTOL        CLOUDY    74  65  73 CALM      30.15F
KNOXVILLE      LGT RAIN  70  69  97 S7        30.18R
OAK RIDGE      LGT RAIN  72  70  93 SW3       30.18R
CROSSVILLE     CLOUDY    75  66  73 VRB5      30.16F
NASHVILLE      CLOUDY    71  70  96 SW3       30.07F
$$

...KEY TO REMARKS...
VSB - VISIBILITY IN MILES
WCI - WIND CHILL INDEX
HX  - HEAT INDEX

$$


USA.gov is the U.S. government's official web portal to all federal, state and local government web resources and services.